Wind_Speed
44 43 42 39 37 37 39 40 41 43 44 43 42 41 41 41 41 42 42 40 40 42 44 46 46 45 49 51 52 51 50 49 47 47 47 47 48 47 44 44 43 44 48 52
53 50 50 47 45 42 41 41 43 45 45 44 44 44 45 46 46 44 43 44 46 48 50 53 54 55 56 54 51 47 46 45 45 45 46 46 45 44 43 43 45 47 51 55
60 59 58 55 52 50 49 48 49 48 47 47 47 48 49 49 48 47 49 51 53 57 58 57 55 54 51 47 44 43 44 44 44 44 44 43 42 43 44 45 48 51 53 56
60 61 62 60 58 58 58 58 59 59 57 56 55 55 56 55 54 53 55 57 59 60 58 55 52 48 44 43 42 43 42 43 44 43 41 41 43 44 46 49 51 53 54 55
50 55 57 56 56 57 58 58 59 59 59 59 58 59 59 58 57 57 58 58 56 55 52 49 45 42 40 40 40 41 43 43 42 41 41 42 44 46 49 50 52 53 53 53
46 49 51 51 52 53 53 53 51 51 52 52 54 55 54 53 53 52 50 49 48 47 46 42 38 35 35 36 38 41 41 41 40 40 41 43 46 48 49 51 51 51 51 50
42 46 48 49 49 50 48 46 46 46 46 46 47 47 45 44 42 40 39 39 39 37 34 30 29 30 32 35 38 39 39 38 38 39 42 44 46 47 49 49 49 49 48 45
33 35 36 38 40 41 40 37 34 34 36 37 37 35 33 31 30 28 30 33 32 27 25 25 26 29 32 34 35 36 36 36 38 40 42 44 45 46 46 45 45 45 43 40
30 30 30 31 31 31 30 26 24 25 27 29 30 29 27 23 21 23 25 24 22 21 22 24 26 28 30 31 32 32 32 35 38 41 42 43 43 43 42 42 42 42 39 36
31 29 29 29 29 28 27 25 23 23 23 24 26 26 24 22 20 21 21 21 21 20 21 23 25 27 27 27 27 29 32 36 38 40 40 40 39 39 39 40 40 39 36 32
27 25 25 25 26 25 24 22 21 21 20 20 21 22 21 20 19 19 18 18 18 19 20 22 23 22 22 23 26 29 33 36 37 38 37 37 37 38 38 38 37 35 30 26
20 21 20 19 18 17 16 17 17 18 20 21 20 20 19 19 19 17 14 15 16 17 18 18 17 16 19 23 27 31 34 35 35 35 36 36 37 38 37 36 35 31 26 23
13 14 14 13 12 12 12 13 14 15 16 18 18 19 19 17 13 10 11 13 14 14 13 12 12 16 20 25 29 31 33 33 34 35 36 37 37 37 36 34 32 29 25 21
4 6 10 14 15 14 13 14 13 11 10 10 10 10 9 6 5 6 8 10 10 9 8 9 13 18 23 26 29 31 32 33 34 36 37 37 36 34 32 30 29 27 24 20
8 14 20 21 19 15 12 10 8 7 6 5 4 4 4 2 2 4 5 5 4 5 7 11 15 20 23 26 28 30 32 34 36 38 37 36 33 30 27 27 26 25 22 19
12 18 21 21 16 11 7 6 5 5 5 5 5 5 3 2 2 3 2 2 2 5 9 13 17 21 23 26 28 31 33 35 37 37 35 32 29 25 23 23 24 23 21 18
13 17 18 16 12 8 5 4 5 7 7 6 5 3 3 4 4 4 4 3 3 7 11 15 18 21 24 27 30 32 34 35 35 33 31 28 24 21 20 21 23 23 21 18
18 16 13 10 6 4 4 4 5 6 6 6 4 3 4 5 5 5 4 3 4 8 12 16 20 23 27 30 32 33 34 33 32 31 27 24 21 19 20 21 22 22 20 19
17 15 11 8 6 2 3 4 4 5 5 4 3 4 4 4 5 6 5 4 5 9 14 18 22 26 29 30 32 33 33 32 31 27 24 22 19 19 20 22 22 21 18 15
19 17 14 10 6 1 3 3 2 2 3 2 3 3 3 4 7 7 6 5 7 11 16 20 24 27 29 30 32 32 33 32 30 26 23 21 20 20 21 23 23 23 20 15
19 17 14 10 6 4 2 2 2 1 1 1 2 2 3 7 9 9 7 6 9 13 17 21 24 26 28 30 33 34 34 33 30 26 24 22 21 22 24 25 26 26 24 20
18 16 12 10 9 8 6 6 5 3 2 1 1 1 5 11 12 10 7 6 10 14 17 20 23 25 28 32 35 36 35 33 31 29 26 25 24 25 26 27 27 27 26 23
17 16 14 13 12 11 9 7 6 5 4 3 2 4 9 13 12 10 7 8 11 15 17 20 23 26 29 33 36 37 36 33 32 30 29 28 28 28 28 29 29 28 27 25
17 17 17 16 15 13 11 9 8 8 7 5 4 8 13 14 13 10 7 9 12 14 17 20 23 27 31 34 36 37 37 35 33 31 30 30 29 30 30 30 30 30 28 27
15 16 16 16 16 15 13 12 11 10 9 7 7 12 15 15 13 10 8 9 11 13 16 20 24 28 32 34 36 37 37 37 36 35 33 32 31 31 31 31 31 31 31 29
15 16 17 17 17 16 15 14 14 13 10 9 10 15 18 17 15 11 8 8 10 13 15 19 24 28 32 34 35 36 37 37 37 38 37 37 36 35 34 34 33 33 33 33
15 17 18 18 18 17 16 16 15 13 11 10 13 18 21 19 16 13 9 8 9 11 15 19 23 27 31 34 35 36 37 37 38 39 40 40 40 40 40 39 39 39 39 39
Wind_Direction
256 256 256 256 254 253 253 255 259 263 266 268 270 273 274 276 279 284 288 289 290 295 298 301 302 307 311 314 314 314 312 310 308 307 307 308 308 308 306 306 309 312 314 314
251 253 255 256 257 257 259 261 263 263 262 264 268 271 273 274 276 280 283 288 293 297 299 301 304 306 308 310 312 312 311 309 308 308 309 309 308 307 307 310 314 316 315 313
251 252 254 255 257 259 261 264 266 268 267 267 269 273 276 277 276 278 282 288 293 297 300 301 303 305 307 309 309 309 309 308 310 311 311 310 309 309 312 315 316 316 315 312
252 254 255 259 259 260 262 265 267 267 268 270 272 275 278 281 283 284 286 289 292 296 299 299 300 302 304 305 306 307 309 312 313 313 311 310 312 314 315 317 317 316 313 311
256 257 259 260 262 262 262 263 264 265 267 269 272 274 276 279 281 282 285 288 291 293 294 294 296 299 301 303 305 308 312 314 314 313 312 314 315 316 318 318 316 314 313 313
259 260 261 261 261 262 263 264 264 265 266 267 269 270 273 274 276 279 282 285 285 284 283 285 291 297 300 303 307 311 312 312 312 313 315 316 317 318 318 317 315 315 316 319
258 260 261 263 265 265 265 266 266 266 266 266 267 269 270 273 275 278 278 275 273 272 275 283 291 296 301 306 310 311 311 311 312 314 316 318 320 320 319 319 320 321 322 324
261 261 262 262 264 266 268 268 267 265 264 262 263 265 267 271 274 273 266 261 265 274 283 289 296 302 307 310 311 311 311 312 313 317 321 322 322 322 323 325 326 327 327 327
265 264 264 264 265 267 269 268 264 260 260 259 257 258 262 266 269 262 262 269 274 279 287 297 304 308 310 311 310 310 311 314 318 323 324 325 326 327 329 331 332 331 330 329
263 261 262 264 266 267 267 264 261 260 262 261 256 257 261 267 272 269 268 270 276 286 298 304 308 309 311 311 310 312 316 321 324 326 327 328 331 334 335 336 335 334 332 333
256 252 255 263 266 265 263 258 255 254 253 252 253 258 260 259 257 255 259 272 286 298 304 306 309 312 312 311 314 320 324 326 328 329 330 332 335 339 339 337 337 337 337 340
249 249 255 262 262 258 252 246 241 236 231 234 244 251 246 238 239 250 270 287 296 301 304 311 316 315 315 319 324 328 329 329 330 331 333 335 337 339 340 340 341 342 343 345
264 256 249 236 225 218 212 201 194 197 208 221 231 234 231 230 239 262 282 291 297 303 313 319 320 321 325 329 332 332 331 331 332 334 336 337 337 338 340 343 346 349 350 353
270 203 176 168 167 169 173 174 176 183 197 209 214 215 216 219 240 268 285 297 305 313 321 327 331 332 333 336 337 335 334 335 335 336 336 335 336 337 341 346 351 354 355 358
129 140 145 148 150 151 150 155 163 172 175 163 148 137 136 152 266 296 307 313 317 324 338 344 341 340 340 340 339 338 339 339 337 336 335 335 337 341 346 352 358 360 0 3
143 151 154 157 158 157 145 135 138 143 131 116 109 107 93 38 8 15 51 60 359 355 357 351 347 346 345 343 344 344 343 340 337 337 338 341 345 350 354 0 6 8 8 9
156 154 157 162 166 162 150 137 142 143 132 120 105 78 46 37 51 73 87 77 30 11 0 355 352 351 352 351 350 347 343 341 341 343 346 350 355 0 4 9 14 17 19 23
148 144 151 163 166 153 122 116 126 126 115 103 88 62 42 52 76 97 105 85 39 12 2 358 358 359 359 356 351 347 345 346 348 351 355 1 6 10 13 16 19 22 27 35
157 164 177 191 202 169 87 80 90 95 94 88 79 57 51 79 114 129 123 91 37 12 4 2 3 5 1 355 352 351 353 355 357 1 7 12 18 19 20 21 22 24 28 37
170 180 194 212 229 268 32 39 55 89 87 72 56 46 71 134 145 139 120 79 31 15 9 8 9 6 1 359 360 2 4 6 10 16 21 24 27 27 26 27 27 28 29 35
178 185 198 217 240 261 282 278 255 187 100 46 26 41 133 152 145 132 110 68 30 20 15 13 11 8 7 10 13 15 17 19 23 28 31 34 34 32 31 32 33 34 37 43
183 187 198 214 232 242 249 253 246 232 240 278 312 122 154 152 144 133 110 65 35 26 21 18 15 14 17 21 23 25 27 30 33 36 38 39 37 35 35 36 38 39 43 51
191 196 202 212 224 234 238 237 227 220 229 246 235 162 156 153 144 131 104 59 41 33 27 23 20 23 26 28 30 31 34 36 39 40 41 42 41 40 40 41 42 43 45 52
198 202 207 212 219 226 229 222 211 212 221 230 203 167 160 156 147 134 102 61 46 39 34 29 29 31 33 34 35 36 38 40 41 42 43 42 43 43 44 45 45 46 48 52
209 209 211 212 216 222 225 214 206 207 212 211 188 167 162 160 152 137 103 68 52 47 42 38 38 39 40 41 40 40 42 43 45 45 46 46 47 48 48 49 49 51 53 55
205 207 209 210 210 213 212 203 196 199 200 191 176 166 163 162 156 141 111 75 59 56 50 47 47 47 47 46 45 45 45 46 48 49 50 51 53 54 55 56 57 58 59 60
198 199 200 198 196 196 193 185 183 188 187 176 169 166 166 165 158 144 119 86 72 70 63 59 56 54 52 51 50 50 50 51 52 53 54 55 57 58 59 61 62 63 64 64
Height
5734 5737 5740 5742 5744 5745 5746 5747 5749 5750 5751 5753 5754 5754 5754 5753 5752 5751 5749 5747 5743 5740 5737 5734 5730 5726 5723 5719 5715 5710 5704 5697 5690 5684 5677 5671 5664 5657 5650 5642 5634 5625 5617 5610
5724 5726 5729 5732 5736 5737 5738 5739 5740 5741 5743 5744 5744 5745 5745 5745 5744 5742 5740 5737 5734 5731 5728 5725 5722 5718 5714 5709 5703 5697 5692 5686 5680 5673 5666 5660 5654 5647 5640 5631 5622 5613 5605 5598
5712 5714 5716 5722 5727 5729 5730 5731 5732 5732 5734 5734 5735 5735 5735 5735 5735 5734 5730 5727 5724 5722 5719 5716 5712 5707 5703 5698 5692 5687 5682 5676 5670 5663 5656 5650 5644 5637 5629 5620 5611 5602 5594 5586
5700 5703 5706 5714 5715 5718 5719 5720 5721 5721 5722 5724 5724 5725 5724 5724 5724 5723 5720 5717 5714 5712 5709 5705 5702 5697 5693 5689 5683 5678 5672 5666 5659 5653 5647 5641 5634 5626 5618 5609 5599 5591 5583 5574
5690 5690 5694 5700 5701 5702 5704 5706 5707 5708 5710 5711 5712 5711 5712 5712 5712 5711 5709 5706 5704 5702 5699 5695 5692 5689 5685 5680 5674 5669 5663 5657 5651 5645 5639 5632 5624 5616 5607 5598 5589 5580 5572 5563
5680 5680 5682 5686 5687 5688 5690 5692 5694 5695 5697 5698 5698 5700 5701 5700 5700 5700 5699 5697 5695 5692 5689 5687 5684 5681 5677 5671 5666 5661 5655 5649 5643 5636 5630 5623 5615 5606 5596 5588 5579 5570 5560 5551
5669 5669 5670 5672 5673 5674 5678 5680 5680 5682 5684 5686 5687 5688 5688 5689 5690 5691 5690 5689 5686 5684 5681 5679 5677 5673 5669 5664 5659 5654 5648 5641 5635 5629 5622 5613 5605 5596 5587 5578 5568 5559 5550 5541
5659 5660 5662 5660 5661 5662 5664 5666 5668 5670 5671 5673 5675 5677 5678 5680 5681 5682 5681 5680 5678 5676 5675 5673 5670 5667 5663 5658 5652 5647 5641 5634 5628 5621 5613 5604 5595 5586 5578 5569 5559 5549 5540 5532
5651 5653 5651 5651 5651 5653 5654 5657 5659 5661 5662 5664 5667 5669 5671 5673 5674 5675 5675 5674 5673 5672 5670 5667 5664 5660 5656 5650 5645 5640 5634 5628 5621 5613 5604 5596 5588 5579 5570 5561 5552 5543 5534 5527
5641 5643 5643 5643 5644 5645 5646 5649 5651 5653 5655 5657 5659 5662 5664 5667 5668 5669 5669 5669 5669 5667 5664 5661 5658 5654 5649 5644 5640 5635 5629 5622 5614 5606 5597 5590 5581 5573 5564 5555 5546 5538 5529 5522
5631 5634 5635 5637 5637 5638 5640 5642 5644 5647 5649 5651 5653 5656 5658 5660 5662 5663 5664 5664 5664 5662 5659 5656 5652 5647 5643 5640 5636 5630 5623 5615 5607 5599 5592 5584 5576 5567 5559 5550 5542 5534 5526 5519
5624 5626 5628 5630 5631 5633 5635 5637 5639 5642 5644 5646 5648 5651 5653 5655 5657 5658 5659 5659 5659 5657 5654 5650 5646 5644 5641 5636 5631 5624 5617 5610 5602 5595 5587 5578 5570 5562 5554 5546 5538 5529 5522 5516
5618 5619 5621 5624 5627 5630 5632 5634 5637 5639 5642 5644 5646 5648 5649 5651 5653 5654 5655 5656 5655 5652 5649 5646 5644 5641 5637 5632 5626 5620 5613 5606 5598 5590 5581 5573 5565 5557 5550 5542 5534 5527 5520 5514
5614 5615 5618 5621 5625 5629 5632 5635 5637 5640 5642 5644 5645 5646 5647 5649 5650 5652 5653 5652 5651 5649 5647 5645 5642 5638 5634 5629 5623 5617 5609 5601 5593 5585 5576 5568 5561 5553 5546 5539 5532 5525 5519 5514
5615 5616 5620 5623 5627 5630 5633 5636 5638 5641 5642 5644 5644 5646 5647 5648 5649 5650 5650 5649 5648 5647 5645 5642 5639 5636 5632 5627 5621 5613 5605 5597 5588 5580 5572 5564 5556 5549 5543 5537 5531 5525 5519 5514
5618 5620 5623 5626 5629 5632 5634 5637 5639 5641 5643 5644 5645 5646 5647 5648 5648 5648 5647 5647 5647 5646 5644 5641 5639 5635 5631 5625 5618 5609 5601 5593 5585 5576 5568 5560 5553 5547 5542 5537 5531 5525 5519 5515
5621 5622 5625 5628 5631 5633 5635 5637 5639 5641 5642 5643 5645 5646 5646 5646 5646 5646 5647 5647 5647 5646 5644 5642 5639 5635 5629 5622 5614 5607 5599 5590 5581 5572 5564 5557 5551 5546 5542 5537 5532 5526 5521 5516
5623 5624 5626 5629 5631 5634 5636 5637 5639 5640 5642 5643 5644 5645 5646 5646 5646 5646 5647 5648 5648 5647 5645 5643 5639 5633 5627 5620 5613 5605 5596 5587 5578 5569 5561 5556 5551 5547 5542 5538 5533 5528 5524 5519
5624 5626 5627 5629 5631 5633 5635 5637 5639 5640 5642 5643 5645 5645 5645 5646 5647 5648 5649 5650 5650 5649 5647 5643 5638 5633 5627 5620 5612 5604 5594 5584 5575 5567 5561 5556 5552 5548 5544 5540 5535 5531 5526 5522
5624 5626 5628 5629 5630 5632 5635 5637 5640 5642 5644 5645 5645 5646 5647 5648 5649 5651 5652 5652 5652 5651 5648 5644 5639 5633 5627 5620 5612 5602 5592 5583 5575 5568 5563 5559 5555 5551 5547 5543 5538 5533 5528 5524
5623 5626 5628 5629 5631 5634 5637 5640 5642 5644 5645 5646 5647 5647 5649 5650 5652 5653 5654 5654 5654 5652 5649 5645 5640 5635 5629 5621 5612 5602 5592 5584 5577 5572 5567 5563 5559 5555 5551 5546 5541 5536 5531 5527
5622 5625 5627 5630 5632 5635 5638 5641 5643 5645 5646 5647 5648 5649 5650 5652 5654 5655 5656 5657 5656 5654 5651 5647 5642 5637 5630 5622 5613 5604 5596 5589 5583 5577 5572 5568 5563 5559 5555 5550 5545 5541 5536 5532
5620 5624 5627 5630 5632 5635 5638 5641 5643 5645 5647 5649 5650 5651 5653 5655 5656 5657 5659 5659 5658 5656 5653 5650 5645 5639 5632 5625 5617 5609 5602 5595 5589 5584 5578 5574 5569 5565 5560 5555 5551 5546 5542 5539
5619 5622 5626 5629 5631 5634 5638 5641 5644 5646 5648 5650 5651 5653 5655 5657 5658 5660 5661 5661 5660 5659 5656 5652 5647 5642 5635 5629 5622 5615 5609 5602 5596 5590 5585 5580 5575 5571 5566 5561 5557 5553 5549 5545
5616 5619 5623 5626 5630 5633 5636 5640 5643 5646 5648 5650 5652 5653 5656 5658 5660 5662 5663 5663 5663 5661 5659 5655 5651 5646 5640 5634 5629 5623 5617 5610 5604 5598 5592 5587 5582 5577 5573 5569 5565 5561 5557 5553
5613 5616 5620 5623 5627 5631 5634 5639 5642 5644 5647 5649 5651 5653 5656 5659 5661 5663 5665 5666 5665 5664 5662 5659 5655 5651 5646 5641 5636 5631 5625 5619 5613 5607 5601 5595 5590 5585 5581 5577 5573 5570 5566 5563
5611 5614 5617 5621 5625 5629 5633 5637 5641 5643 5646 5648 5650 5652 5656 5659 5662 5665 5667 5668 5668 5667 5665 5663 5660 5656 5652 5648 5644 5639 5634 5628 5622 5617 5611 5605 5600 5596 5592 5588 5584 5580 5577 5573